Regional Weather Roundup
Issued by NWS

Home | Current Version | Previous Version | Text Only | Print | Product List | Glossary On
Versions: 1 2 3 4 5 6 7 8 9 10 11 12 13 14 15 16 17 18 19 20 21 22 23 24 25 26 27 28 29 30 31 32 33 34 35 36 37 38 39 40 41 42 43 44 45 46 47 48 49 50
000
ASUS46 KSEW 291910
RWRWA

WASHINGTON REGIONAL WEATHER ROUNDUP
NATIONAL WEATHER SERVICE SEATTLE WA
1200 PM PDT TUE JUL 29 2014

NOTE:"FAIR" INDICATES FEW OR NO CLOUDS BELOW 12,000 FEET WITH NO
SIGNIFICANT WEATHER AND/OR OBSTRUCTIONS TO VISIBILITY.

WAZ505-507>509-292000-
SEATTLE, TACOMA, EVERETT, AND VICINITY

CITY           SKY/WX    TMP DP  RH WIND       PRES   REMARKS
EVERETT        SUNNY     71  53  52 VRB6      30.16S
BOEING FIELD   SUNNY     80  52  37 NW7       30.13S
RENTON         SUNNY     78  57  48 NW8       30.12S
SEATAC AIRPORT SUNNY     77  56  48 W6        30.15S
JBLM-MCCHORD   SUNNY     79  56  46 VRB5      30.13F
PUYALLUP       FAIR      81  54  39 CALM      30.15S
JBLM-FT LEWIS  SUNNY     78  55  44 NW6       30.13S
TACOMA NARROWS SUNNY     76  52  43 NE7       30.14S
$$

WAZ001-503-506-510-514-515-292000-
NORTH INTERIOR

CITY           SKY/WX    TMP DP  RH WIND       PRES   REMARKS
BELLINGHAM     SUNNY     68  56  65 SW6       30.14S
FRIDAY HARBOR  SUNNY     67  54  63 SE5       30.15S
EASTSOUND      SUNNY     66  55  68 CALM      30.12S
PORT ANGELES   SUNNY     66  55  67 W10       30.17R
NAS WHIDBEY    MOSUNNY   65  54  67 SW12      30.15S
BURLINGTON     SUNNY     72  57  60 SW8       30.15S
$$

WAZ020-022-039-040-504-511-512-292000-
SOUTHWEST INTERIOR

CITY           SKY/WX    TMP DP  RH WIND       PRES   REMARKS
SHELTON        SUNNY     79  55  43 VRB6      30.11F
OLYMPIA        SUNNY     77  55  46 N5        30.13F
CHEHALIS       FAIR      79  59  50 N8        30.13S
KELSO          SUNNY     73  57  56 NW6       30.14F
VANCOUVER      SUNNY     77  55  46 NW8       30.08F
SCAPPOOSE, OR  SUNNY     82  56  40 N9        30.07F
PORTLAND, OR   SUNNY     77  59  53 W5        30.09F
$$

WAZ021-516-517-292000-
WASHINGTON COAST

CITY           SKY/WX    TMP DP  RH WIND       PRES   REMARKS
FORKS          SUNNY     70  57  63 NW10      30.18S
HOQUIAM        SUNNY     68  61  78 SW14      30.15F
ASTORIA, OR    SUNNY     69  59  70 NW12      30.15F
$$

WAZ019-023-024-040-518-519-292000-
CASCADE MOUNTAINS AND COLUMBIA GORGE

CITY           SKY/WX    TMP DP  RH WIND       PRES   REMARKS
STAMPEDE PASS  SUNNY     71  46  40 VRB7      30.25
TROUTDALE, OR  SUNNY     78  59  51 VRB3      30.07F
THE DALLES, OR SUNNY     90  55  30 NW20G28   29.97F
$$

WAZ026-027-041>044-520-521-292000-
EAST SLOPES

CITY           SKY/WX    TMP DP  RH WIND       PRES   REMARKS
OMAK           SUNNY     95  44  17 VRB5      30.02F HX  91
WENATCHEE      SUNNY     94  46  19 VRB3      30.01F HX  90
ELLENSBURG     SUNNY     91  57  31 CALM      30.06F
YAKIMA         SUNNY     97  44  16 CALM      30.01F HX  93
$$

WAZ028-034-035-292000-
COLUMBIA BASIN

CITY           SKY/WX    TMP DP  RH WIND       PRES   REMARKS
EPHRATA        SUNNY     97  44  16 VRB3      30.00F HX  93
MOSES LAKE     SUNNY     96  47  18 SW7       30.02S HX  92
PASCO          SUNNY     93  56  28 VRB3      29.98F HX  91
HERMISTON, OR  SUNNY     92  53  26 N5        29.99F
$$

WAZ036>038-292000-
NORTHEAST WASHINGTON

CITY           SKY/WX    TMP DP  RH WIND       PRES   REMARKS
SPOKANE GEIGER MOSUNNY   92  48  22 NE5       30.09F
SPOKANE FELTS  SUNNY     93  48  21 VRB3      30.07F
FAIRCHILD AFB  SUNNY     91  49  23 E3        30.10F
COEURDALENE,ID SUNNY     90  55  31 E3        30.08F
DEER PARK      SUNNY     90  50  25 CALM      30.09F
$$

WAZ029>033-292000-
SOUTHEAST WASHINGTON

CITY           SKY/WX    TMP DP  RH WIND       PRES   REMARKS
PULLMAN        SUNNY     91  45  20 MISG      30.12F
LEWISTON, ID   SUNNY     95  45  17 W5        30.03F HX  91
WALLA WALLA    SUNNY     93  49  22 SW8       30.03F HX  90
PENDLETON, OR  SUNNY     92  49  22 VRB5      30.04S
$$


USA.gov is the U.S. government's official web portal to all federal, state and local government web resources and services.